Location: Siratepeler Tepesi
(39.1042°N, 32.0781°E)
Time: 05:03:06
(UTC+00:00)

CSL-04 Debris - Pass Details

Date: 11 April 2026
Orbit: 820 x 838 km, 98.7° (Epoch: 9 May)

Event Time Altitude Azimuth Distance (km) Brightness Sun altitude
Exits shadow 17:13:05 - 146° (SE) 2,790 6.4 -9.8°
Reaches altitude 10° 17:14:05 10° 143° (SE) 2,408 6.1 -10.0°
Maximum altitude 17:19:11 47° 71° (ENE) 1,073 4.4 -10.9°
Drops below altitude 10° 17:24:18 10° 359° (N) 2,429 6.9 -11.8°
Sets 17:26:44 0° 353° (N) 3,368 7.7 -12.3°
